Temp
55 55 56 57 58 57 56 57 57 58 59 58 60 60 62 63 62 60 60 61 60 60 61 60 61 61 60 62 64 62 61 60 59 59 61 62 64 64 65 66 66 65 65
53 55 55 56 56 56 56 55 55 57 59 58 59 60 61 63 61 59 59 61 58 58 60 60 60 61 62 64 63 62 63 62 61 59 60 60 63 64 63 62 64 68 66
55 55 54 54 54 54 55 56 54 55 57 58 58 58 60 61 62 61 60 60 59 60 61 61 61 62 61 63 64 63 62 63 62 61 60 60 61 60 61 61 62 63 66
55 54 52 52 52 53 54 54 53 55 56 57 58 58 60 61 62 62 61 60 60 62 62 62 62 62 62 64 65 63 62 62 60 60 58 57 57 58 58 58 58 60 62
50 49 49 50 51 51 51 52 52 53 55 56 58 60 58 60 61 61 60 59 58 58 61 64 64 65 65 64 64 61 61 59 58 56 53 52 53 52 53 56 57 58 59
47 48 49 50 50 50 50 50 51 53 52 52 54 57 58 60 53 52 54 58 61 61 61 63 66 62 60 58 58 58 61 58 56 54 52 51 52 53 53 56 57 56 55
47 47 48 49 50 50 49 49 49 51 50 50 51 55 57 59 50 49 51 56 57 58 60 62 62 65 61 63 56 56 55 55 57 56 52 51 53 54 56 56 56 57 57
45 46 47 47 48 49 48 48 47 48 47 48 50 53 56 59 50 47 49 53 55 57 61 60 59 58 60 62 60 59 58 57 56 57 57 56 57 57 57 58 57 58 58
44 45 47 47 47 46 46 46 47 47 46 44 48 50 53 57 49 48 51 56 56 58 60 60 60 60 51 52 61 59 58 58 56 53 52 51 48 49 53 56 55 57 57
43 45 46 46 46 45 46 46 47 46 47 48 48 50 53 55 48 48 49 55 55 58 58 58 53 58 48 50 58 57 55 55 56 55 54 51 47 50 48 57 58 58 58
44 44 45 45 45 46 45 45 45 44 45 47 50 48 51 54 54 46 45 53 56 57 58 58 60 48 47 48 51 56 54 55 53 54 53 52 53 54 55 56 59 62 59
43 43 44 45 46 47 45 45 44 44 43 45 46 46 50 56 49 45 45 46 53 57 61 63 57 46 44 43 49 42 42 49 53 51 50 50 51 52 55 62 62 62 63
42 41 43 46 46 47 45 44 42 42 42 44 47 47 49 56 54 46 45 46 48 57 63 58 47 43 41 42 42 41 44 52 51 49 49 49 51 54 58 60 59 60 60
40 42 44 44 44 44 44 44 43 42 42 44 47 50 48 53 55 52 51 51 49 51 49 47 47 47 47 46 46 44 50 50 50 49 49 51 53 56 57 58 58 58 57
40 41 42 44 43 42 44 44 43 44 43 44 47 49 48 49 45 44 51 52 52 51 51 52 52 50 50 51 51 51 50 50 50 50 51 53 55 55 57 58 58 58 57
38 40 42 43 43 43 42 42 41 41 41 41 42 46 49 45 40 41 43 45 45 47 53 53 49 51 51 51 53 53 52 52 52 51 52 53 55 55 57 57 58 57 57
39 41 44 43 43 42 42 41 40 42 40 40 40 42 42 42 40 42 40 41 42 48 51 50 51 51 52 53 53 53 53 53 54 53 54 55 56 57 55 57 58 58 57
41 42 45 44 43 43 43 43 42 42 41 41 42 41 42 41 40 40 41 42 45 48 50 51 52 53 53 54 53 53 53 53 54 54 54 56 56 57 58 58 58 57 58
40 42 44 47 45 44 44 44 44 44 44 43 44 42 43 41 40 40 39 52 55 50 51 51 53 53 53 53 53 53 54 53 53 54 55 56 57 57 57 57 56 49 53
40 42 43 47 47 46 45 44 44 44 44 44 41 45 46 45 42 43 45 52 51 55 54 52 52 53 53 53 53 53 54 52 53 53 55 56 57 57 57 57 57 58 58
40 42 41 46 46 48 46 45 45 45 45 45 44 45 40 45 47 48 48 50 54 53 52 53 52 53 53 53 54 54 52 52 53 53 55 57 57 57 58 57 58 57 56
39 40 41 42 43 43 46 47 47 46 46 47 48 44 37 48 50 50 52 50 52 54 53 54 53 54 54 55 56 53 53 53 54 55 56 57 58 57 57 58 57 56 54
37 37 38 39 40 40 43 48 48 47 46 47 48 46 44 47 48 48 51 51 52 53 53 53 53 53 54 55 54 55 55 55 55 57 57 57 57 57 57 57 57 55 55
35 35 36 36 37 38 39 41 48 44 43 45 47 45 46 47 45 47 50 50 54 54 52 52 53 55 55 54 54 56 58 58 58 59 60 58 57 55 57 57 58 57 55
33 33 33 34 34 34 36 37 39 42 48 47 44 45 47 45 45 47 48 51 49 51 52 52 53 55 56 56 56 57 51 41 53 49 60 59 58 58 58 58 57 56 55
33 32 32 32 32 33 33 34 36 37 39 43 48 44 44 45 45 46 47 48 49 50 51 51 52 55 56 55 56 49 39 38 45 38 57 58 58 59 59 58 57 56 54
MSLP
1009.05 1008.80 1008.46 1008.08 1007.65 1007.22 1006.91 1006.31 1005.82 1005.12 1004.23 1003.75 1003.23 1002.94 1002.72 1002.27 1001.70 1001.31 1001.05 1001.01 1001.27 1001.26 1001.24 1001.52 1001.70 1002.54 1004.00 1004.39 1004.72 1003.41 1003.76 1004.82 1005.99 1006.54 1006.33 1006.33 1006.68 1006.50 1006.32 1006.31 1006.46 1006.56 1006.29
1009.01 1008.67 1008.28 1007.89 1007.45 1006.99 1006.54 1005.99 1005.50 1005.01 1004.13 1003.36 1002.71 1002.48 1001.94 1001.75 1001.37 1001.04 1000.65 1000.54 1000.54 1000.73 1000.47 1000.70 1000.67 1001.51 1002.00 1000.76 1003.15 1001.52 1003.19 1003.83 1005.17 1006.15 1006.26 1006.31 1006.22 1006.38 1006.06 1006.11 1006.11 1006.11 1006.07
1008.58 1008.27 1007.93 1007.48 1007.08 1006.59 1006.04 1005.40 1004.86 1004.39 1003.77 1003.07 1002.45 1001.92 1001.26 1001.04 1000.80 1000.44 1000.21 1000.12 1000.19 1000.04 1000.02 999.94 999.54 999.61 998.40 1002.53 1002.18 1002.60 1002.12 1003.67 1004.51 1005.30 1005.95 1005.97 1005.93 1006.20 1005.90 1005.74 1005.68 1005.89 1005.82
1008.10 1007.59 1007.20 1006.84 1006.48 1006.04 1005.48 1004.86 1004.37 1003.79 1003.23 1002.68 1002.06 1001.52 1000.90 1000.06 1000.05 999.62 999.53 999.57 999.56 999.18 999.02 998.89 998.73 997.87 996.57 1001.41 1001.15 1001.59 1002.85 1003.70 1004.45 1004.95 1005.40 1005.85 1005.95 1006.28 1005.81 1005.95 1005.35 1005.96 1006.09
1007.64 1007.17 1006.63 1006.25 1005.83 1005.42 1004.98 1004.39 1003.73 1003.10 1002.37 1001.93 1001.51 1000.81 1000.30 999.60 999.17 999.16 999.22 999.25 998.90 998.50 998.36 998.53 998.42 997.72 997.79 999.32 1000.40 1001.64 1002.55 1003.48 1004.08 1004.37 1005.32 1005.59 1006.13 1006.49 1005.82 1005.25 1004.80 1005.35 1005.47
1007.42 1006.84 1006.27 1005.68 1005.10 1004.68 1004.20 1003.79 1003.17 1002.29 1001.55 1001.28 1000.87 1000.34 999.76 998.92 998.94 999.35 999.50 999.68 999.69 999.64 998.97 998.72 998.53 998.27 998.46 999.08 999.83 1000.47 1001.31 1002.37 1003.39 1004.13 1004.90 1005.27 1005.72 1005.95 1005.72 1005.03 1004.68 1005.38 1005.81
1006.88 1006.20 1005.69 1005.15 1004.53 1004.07 1003.56 1003.04 1002.51 1001.80 1001.25 1000.97 1000.29 999.84 999.26 998.52 998.93 999.23 999.13 999.31 999.31 999.59 999.53 998.78 997.88 997.83 998.25 998.84 999.83 1000.62 1001.12 1001.74 1002.34 1003.06 1003.96 1004.44 1004.98 1005.05 1005.36 1004.50 1004.27 1005.13 1005.46
1006.32 1005.83 1005.29 1004.70 1004.06 1003.45 1002.88 1002.32 1001.78 1001.38 1000.84 1000.31 999.95 999.31 998.56 998.03 997.90 998.71 999.27 999.13 998.92 999.07 999.41 998.86 997.63 998.37 998.63 998.65 999.67 1000.76 1001.62 1002.25 1002.41 1002.81 1003.14 1003.64 1003.62 1004.51 1004.33 1003.53 1004.08 1004.98 1005.10
1005.95 1005.30 1004.64 1004.01 1003.44 1002.82 1002.14 1001.62 1001.36 1000.97 1000.32 999.95 999.56 999.27 998.43 997.66 997.49 997.71 998.50 999.03 998.99 998.68 998.76 998.43 997.50 998.52 999.05 999.16 1000.35 1001.43 1002.14 1002.42 1002.26 1002.66 1002.90 1003.14 1003.54 1003.61 1003.29 1003.85 1004.36 1004.98 1004.72
1005.35 1004.65 1004.02 1003.37 1002.70 1001.82 1001.20 1000.69 1000.51 1000.30 999.84 999.35 998.87 998.26 997.73 997.35 997.19 997.23 997.25 997.46 998.47 999.01 998.31 998.25 998.46 998.54 999.43 999.42 1000.53 1001.53 1002.11 1002.29 1002.24 1003.29 1003.49 1003.43 1003.15 1002.79 1003.63 1002.93 1004.26 1004.07 1003.80
1004.87 1004.09 1003.20 1002.38 1001.69 1000.90 1000.22 999.81 999.58 999.51 999.25 998.45 998.00 997.54 996.86 996.47 996.30 996.96 997.80 997.83 998.74 998.16 998.35 998.59 998.67 998.84 999.41 999.60 1000.42 1001.13 1001.38 1002.13 1002.73 1002.84 1003.12 1003.18 1003.13 1002.87 1002.55 1003.01 1003.24 1002.84 1002.92
1004.18 1003.26 1002.33 1001.35 1000.49 999.63 998.95 998.46 998.42 998.60 998.47 997.91 997.48 997.06 996.14 995.22 995.77 996.61 996.74 997.17 996.99 997.80 997.82 997.85 998.26 998.99 999.82 1000.27 1000.79 1001.45 1001.94 1002.33 1002.94 1003.27 1003.39 1002.66 1003.23 1002.88 1002.55 1002.10 1002.35 1002.12 1002.14
1003.53 1002.60 1001.39 1000.21 999.34 998.73 998.04 997.23 997.31 997.70 997.76 997.29 996.98 996.50 995.65 994.95 995.20 995.44 995.96 996.42 996.05 997.83 996.97 997.44 998.42 999.58 1000.31 1000.98 1001.33 1001.69 1001.81 1002.17 1002.71 1003.70 1003.48 1002.85 1002.62 1002.56 1002.23 1002.24 1001.84 1002.04 1002.17
1002.97 1001.72 1000.51 999.65 998.89 998.22 997.45 996.69 996.68 996.87 997.02 996.87 996.52 995.88 995.58 994.89 995.06 995.56 995.30 996.03 996.53 996.88 996.57 998.01 998.93 999.76 1000.18 1001.10 1001.62 1001.98 1001.90 1002.50 1002.84 1003.11 1002.88 1002.18 1002.14 1002.34 1002.06 1001.86 1001.81 1002.06 1002.36
1002.36 1001.17 1000.05 999.17 998.56 997.94 997.21 996.61 996.53 996.42 996.64 996.56 996.33 996.05 995.90 995.52 996.00 995.83 995.80 996.19 996.63 997.06 997.59 998.65 999.42 1000.05 1000.91 1001.29 1001.89 1001.60 1001.86 1002.33 1002.44 1002.46 1002.50 1002.63 1002.33 1001.68 1001.42 1001.73 1002.02 1001.83 1002.36
1001.91 1000.66 999.62 998.82 998.23 997.73 997.22 996.76 996.67 996.47 996.41 996.38 996.53 996.54 996.29 996.31 996.38 995.88 995.66 996.66 996.97 996.89 997.53 998.62 999.56 1000.09 1000.77 1001.23 1001.10 1001.26 1001.79 1001.92 1002.02 1001.89 1002.40 1002.34 1001.54 1001.57 1001.38 1001.89 1001.62 1001.52 1002.46
1001.56 1000.19 999.02 998.28 997.95 997.55 997.15 996.83 996.58 996.17 996.29 996.28 996.20 996.50 996.57 996.33 996.71 996.39 996.89 997.54 997.25 997.31 998.00 998.82 999.32 1000.03 1000.31 1000.44 1000.49 1001.29 1001.51 1001.28 1001.54 1001.52 1001.62 1001.20 1001.46 1001.52 1001.71 1001.52 1001.31 1001.62 1002.29
1000.97 999.87 998.63 997.68 997.47 997.20 996.84 996.64 996.46 996.28 996.21 996.15 996.14 996.30 996.55 996.53 996.44 996.91 996.22 997.45 997.87 997.84 997.71 998.28 998.51 999.25 999.57 999.52 1000.16 1000.76 1000.83 1001.25 1001.11 1000.88 1001.29 1001.38 1001.33 1001.38 1001.20 1001.23 1001.39 1001.72 1002.37
1000.76 999.70 998.58 997.26 996.88 996.63 996.44 996.18 996.08 995.91 995.72 995.75 995.74 995.82 996.14 996.27 996.28 995.96 995.98 996.34 997.12 997.41 997.23 997.94 998.18 998.56 998.88 999.57 1000.29 1000.46 1000.92 1001.03 1000.85 1000.94 1001.29 1001.26 1001.12 1000.93 1000.61 1000.72 1001.15 1001.49 1001.94
1000.67 999.58 998.49 997.11 996.09 995.99 995.96 995.71 995.55 995.53 995.37 995.27 995.32 995.60 996.03 996.19 996.47 996.78 996.59 996.75 996.65 996.65 997.14 997.88 998.17 998.54 998.97 999.67 1000.34 1000.49 1000.63 1000.74 1000.81 1000.83 1001.02 1000.91 1000.63 1000.44 1000.36 1000.50 1001.07 1001.33 1001.66
1000.81 999.77 998.78 997.60 996.56 995.69 995.45 995.36 995.22 995.03 994.96 994.96 995.06 995.14 995.50 996.12 996.40 996.35 996.62 996.54 996.73 996.87 997.16 997.66 998.03 998.47 998.98 999.69 1000.15 1000.20 1000.49 1000.61 1000.47 1000.31 1000.32 1000.12 1000.00 999.98 1000.13 1000.46 1000.94 1001.42 1001.72
1001.30 1000.34 999.41 998.48 997.42 996.61 995.55 995.06 995.02 994.99 994.87 994.96 995.06 995.26 995.40 995.72 995.76 996.04 996.30 996.30 996.52 996.73 996.96 997.45 998.04 998.41 998.76 999.44 999.64 999.96 1000.21 1000.13 999.84 999.66 999.64 999.64 999.69 999.96 1000.19 1000.44 1000.88 1001.16 1002.05
1002.02 1001.09 1000.15 999.31 998.37 997.30 996.34 995.31 995.22 995.33 995.35 995.31 995.36 995.46 995.85 996.17 996.04 996.11 996.15 996.30 996.60 996.79 996.99 997.43 997.87 998.29 998.55 998.89 999.04 999.33 999.57 999.27 999.02 998.88 999.13 999.38 999.65 999.91 1000.15 1000.45 1000.86 1001.37 1001.76
1002.93 1002.06 1001.24 1000.37 999.54 998.68 997.78 996.81 995.89 995.67 995.85 995.92 995.91 996.10 996.19 996.37 996.25 996.39 996.40 996.39 996.51 996.61 996.81 996.97 997.36 997.89 998.28 998.44 998.68 998.86 998.76 998.64 998.44 998.65 998.88 999.23 999.65 999.82 1000.21 1000.69 1000.86 1001.41 1002.36
1003.90 1003.10 1002.32 1001.51 1000.77 1000.00 999.09 998.31 997.64 997.10 996.28 996.17 996.28 996.43 996.49 996.42 996.46 996.40 996.38 996.55 996.82 996.87 996.89 997.15 997.48 997.63 997.79 997.99 998.22 998.18 998.29 998.56 998.55 998.54 998.68 999.00 999.52 999.82 1000.20 1000.62 1001.07 1001.51 1002.61
1004.96 1004.27 1003.54 1002.79 1002.00 1001.26 1000.52 999.78 999.04 998.49 997.89 997.29 996.66 996.66 996.68 996.77 996.75 996.66 996.52 996.51 996.72 996.77 996.93 997.03 997.07 997.24 997.35 997.46 997.53 997.81 998.12 998.28 998.12 998.25 998.56 998.86 999.41 999.54 999.86 1000.16 1000.87 1001.65 1002.23
Wind_Speed
7 8 9 10 11 10 9 9 9 8 8 7 7 8 12 14 8 7 8 9 8 9 9 10 14 12 11 10 12 4 4 5 5 2 2 4 4 4 5 4 4 5 5
5 7 10 11 12 11 10 10 9 11 12 8 7 8 9 11 8 8 9 10 11 8 9 11 12 9 11 16 11 8 7 5 5 6 3 4 5 6 4 4 4 4 4
8 11 13 14 13 13 13 13 10 11 11 11 9 9 9 11 11 12 9 9 11 11 10 14 14 13 13 13 11 7 5 5 4 4 4 2 3 2 1 2 2 2 3
16 15 16 15 14 14 15 13 11 13 13 10 10 11 10 9 11 12 12 11 11 12 12 12 13 12 19 17 11 7 6 7 5 4 3 3 2 2 2 1 3 1 3
14 15 14 14 14 14 14 15 14 15 14 12 9 11 12 9 8 9 8 10 10 7 7 7 11 11 14 15 8 8 9 6 5 4 3 2 2 2 3 4 3 3 2
14 14 15 16 15 15 13 14 16 16 9 8 7 8 11 7 8 8 4 4 6 8 10 10 10 13 14 16 14 15 13 8 6 5 4 4 4 3 3 3 4 2 1
14 15 16 16 15 14 14 15 16 14 11 13 9 7 11 11 7 7 1 2 8 12 13 7 3 3 10 10 12 13 10 10 9 8 6 5 5 6 5 4 3 3 4
15 16 15 14 15 14 14 15 14 14 13 6 7 8 7 8 12 10 10 3 8 10 14 11 7 7 6 10 9 7 6 6 6 5 6 7 5 7 6 4 4 2 3
15 15 14 14 15 15 15 14 13 12 9 6 9 10 9 8 12 10 9 4 5 11 9 10 10 9 10 15 10 8 7 3 4 6 8 7 9 8 5 4 3 3 2
14 15 15 15 16 16 16 14 12 12 13 10 12 12 14 9 13 12 1 1 6 6 6 4 11 11 13 14 9 8 7 4 6 4 2 2 4 4 10 4 4 5 2
15 15 16 16 16 16 16 13 11 10 11 12 10 9 8 9 11 15 11 5 5 7 9 7 6 16 13 13 11 7 5 6 4 3 1 2 3 3 3 6 7 4 3
15 15 16 17 14 13 16 13 10 9 10 11 7 8 6 4 11 13 13 8 17 14 13 8 7 15 13 13 8 11 10 7 3 1 1 2 3 4 4 3 5 5 4
15 16 17 17 15 10 13 12 7 7 7 8 7 6 5 3 5 12 13 8 11 13 11 11 15 13 13 8 9 10 9 3 3 2 3 3 3 4 4 1 2 4 7
15 16 15 15 11 11 10 6 5 5 6 7 7 4 2 2 5 5 4 2 8 3 13 9 9 10 7 8 6 4 3 3 4 3 3 2 3 2 1 2 2 2 4
14 14 13 6 8 9 8 3 4 4 6 6 4 2 2 3 6 5 9 5 6 7 11 7 7 5 4 4 1 3 3 3 4 2 2 4 4 0 0 1 2 2 4
14 12 10 5 5 5 5 4 5 9 8 10 8 4 2 5 5 12 2 7 7 14 6 8 4 5 5 5 4 3 2 3 3 3 4 5 3 1 1 2 2 3 5
14 14 10 5 4 5 4 3 4 3 5 6 5 7 3 4 8 12 4 9 9 7 5 5 5 5 4 5 4 3 1 1 2 3 4 3 3 2 3 1 3 3 4
15 20 11 5 4 4 3 3 3 3 3 4 7 7 2 4 8 5 9 15 2 2 4 4 5 5 4 4 3 2 0 1 2 2 1 4 4 3 3 3 4 4 4
13 10 11 9 4 5 3 3 3 4 4 4 2 4 2 6 9 12 8 5 9 5 5 3 3 4 3 4 2 3 2 0 1 2 3 4 3 3 2 2 2 6 8
11 16 13 11 4 3 3 3 2 3 3 3 4 4 3 3 2 2 2 6 3 5 5 5 4 4 4 4 3 3 1 2 3 2 3 5 4 3 2 3 2 4 4
10 10 15 9 10 6 3 4 3 3 2 2 4 4 7 4 4 3 6 5 6 5 4 5 4 4 4 4 4 2 1 3 4 3 4 4 3 1 1 3 4 5 7
10 10 10 10 9 9 9 3 2 0 1 2 4 3 5 1 2 4 7 5 5 5 4 6 5 5 5 5 4 3 3 4 5 3 4 3 1 1 2 4 5 5 7
11 12 11 10 11 13 11 2 0 3 3 2 2 3 2 1 3 3 4 5 5 5 5 5 5 4 4 4 3 4 3 5 5 4 4 2 2 2 3 6 7 7 7
12 12 12 11 11 11 11 11 3 2 4 3 3 2 2 3 2 2 2 3 4 4 4 5 5 6 5 3 3 3 3 3 2 2 4 3 3 4 5 6 7 8 7
12 13 12 12 12 12 11 11 10 10 2 2 3 2 3 4 4 4 4 1 1 1 3 4 4 5 5 5 5 5 3 5 5 3 3 4 6 8 7 7 8 10 9
13 13 12 11 12 12 11 11 11 10 9 7 3 4 4 4 4 4 4 4 3 3 3 3 4 7 7 6 7 7 7 8 7 7 5 4 6 7 7 8 10 7 13
Wind_Direction
1 346 341 332 332 333 327 314 298 282 265 265 267 279 284 285 255 230 215 201 180 179 180 192 206 205 225 238 223 195 147 150 168 207 171 192 225 232 261 235 248 253 252
307 316 315 309 304 302 302 304 306 310 299 273 266 268 277 282 250 229 213 191 172 179 191 191 193 209 240 191 193 191 173 153 135 192 168 178 203 238 234 240 243 237 254
311 308 304 297 295 295 292 290 289 299 305 297 270 263 265 271 264 238 219 212 207 211 183 177 172 169 112 228 215 196 127 161 156 154 180 174 213 215 237 231 239 275 270
308 302 300 295 292 291 291 291 289 291 291 300 286 273 263 261 261 253 234 220 220 220 186 173 170 172 134 224 199 173 169 172 176 176 139 172 171 228 128 150 45 47 301
308 301 294 293 287 285 288 288 284 280 276 274 286 296 263 255 261 261 243 216 208 211 192 200 199 194 188 185 159 167 168 172 166 137 127 102 188 221 184 199 140 162 243
302 300 301 295 292 284 285 290 288 282 271 265 269 287 273 253 261 273 312 330 308 305 237 237 229 178 171 156 151 147 157 152 140 140 166 163 205 219 207 189 127 93 319
301 302 299 298 298 294 290 288 285 283 284 279 256 261 271 271 215 197 282 308 283 278 285 261 216 151 140 140 134 135 138 144 159 159 159 175 184 198 198 167 146 164 209
301 294 292 293 295 296 291 290 287 277 277 267 292 259 250 262 249 151 132 297 280 266 281 220 152 151 156 127 120 123 137 154 154 155 163 174 182 189 195 144 141 207 262
290 291 293 292 291 289 283 281 287 296 291 277 279 267 274 246 231 243 148 197 291 280 242 207 141 157 157 124 126 128 142 152 137 179 191 184 185 173 145 134 167 188 264
300 300 298 294 283 278 274 274 276 283 279 266 263 243 238 238 207 219 197 46 289 273 209 183 170 151 147 131 130 143 140 155 123 125 154 221 233 191 192 168 195 211 150
298 294 287 284 280 276 276 265 263 269 282 262 260 282 255 221 205 190 146 190 190 234 178 178 162 136 134 125 124 130 142 143 139 152 170 311 300 265 207 203 206 181 135
294 291 288 285 281 277 270 260 245 256 266 277 246 265 263 217 161 187 173 210 158 197 185 169 143 135 135 128 125 136 130 122 128 203 256 5 288 282 266 226 185 173 152
304 297 292 292 295 295 294 259 230 241 252 264 231 241 277 177 162 177 169 166 155 199 164 145 132 125 120 101 122 136 135 127 101 267 254 232 216 247 292 283 122 128 95
298 296 298 303 304 308 305 261 227 239 250 265 223 226 346 344 154 133 94 101 117 154 100 105 121 114 110 122 115 133 142 166 180 221 233 245 275 233 246 190 100 144 106
305 299 301 300 305 314 318 286 243 240 247 251 221 145 72 9 13 315 134 165 148 146 113 108 114 99 111 112 182 154 160 180 198 210 249 251 254 235 337 184 154 116 106
302 301 304 294 312 313 321 321 261 271 290 275 257 241 114 124 9 12 174 142 162 136 103 126 113 127 145 165 159 111 173 203 233 198 223 233 234 270 259 200 127 117 130
302 303 304 280 298 298 315 313 318 285 263 298 239 207 142 358 50 5 65 178 156 91 110 139 142 154 158 165 144 137 203 142 256 228 223 212 238 226 206 96 83 112 129
311 309 307 274 274 277 273 280 263 278 222 246 238 256 309 2 4 0 282 127 97 24 132 152 153 163 178 129 104 129 102 287 333 7 208 219 229 223 206 129 134 146 172
313 312 312 300 245 262 267 256 255 262 267 212 214 195 213 29 30 344 169 205 198 178 138 146 150 158 141 127 133 142 218 9 327 311 225 231 237 216 231 142 190 160 172
313 311 320 321 271 236 260 255 251 264 276 197 201 192 146 82 349 287 179 190 160 187 169 153 181 160 149 147 163 185 317 5 303 287 220 221 234 215 216 193 180 152 182
329 329 327 335 341 309 214 260 252 263 254 180 190 163 158 160 224 192 188 158 173 188 143 162 173 168 152 146 186 161 224 254 256 265 223 224 219 278 231 187 153 137 125
339 339 341 341 337 338 321 213 268 149 101 149 162 133 120 350 250 168 184 161 165 185 163 165 176 173 149 176 191 167 239 262 268 243 228 219 250 36 171 135 121 109 127
350 351 351 349 349 347 354 340 258 126 97 102 104 119 122 239 33 69 139 137 145 157 166 164 165 154 166 194 160 186 234 263 251 219 189 211 137 171 140 137 139 130 141
359 359 357 355 358 358 358 355 340 117 129 149 156 183 224 238 305 324 37 63 129 125 126 134 145 153 165 166 178 204 222 278 227 195 181 155 148 141 125 136 142 147 135
3 2 2 2 1 360 356 0 4 6 321 172 183 174 214 266 272 277 279 245 82 150 169 156 168 188 202 233 252 271 259 251 246 182 180 160 162 161 161 144 149 133 135
8 7 4 2 3 1 1 359 0 2 358 351 233 191 191 202 228 249 271 277 255 257 224 206 206 219 233 252 260 257 244 232 219 212 205 160 164 175 157 148 165 153 142